Location: ??
(34.9170°N, 135.5016°E)
Time: 15:15:56
(UTC+00:00)

S-56A Canister/Altair - Pass Details

Date: 07 March 2021
Orbit: 632 x 2500 km, 38.9° (Epoch: 16 April)

Event Time Altitude Azimuth Distance (km) Brightness Sun altitude
Rises 12:13:18 0° 283° (WNW) 5,987 12.9 -39.7°
Reaches altitude 10° 12:20:28 10° 261° (W) 4,659 12.0 -41.0°
Maximum altitude 12:25:25 13° 237° (WSW) 4,099 11.4 -41.9°
Drops below altitude 10° 12:29:51 10° 213° (SSW) 4,041 11.2 -42.7°
Enters shadow 12:31:07 - 206° (SSW) 4,115 11.2 -42.9°
